DW6119 Weather Reports


time (UTC)temp
C
wind
direction
speed
KPH
gust
KPH
rain 1hr
cm
rain 24hr
cm
rain mn
cm
humidity
%
barometer
mb
20260507141914 17 246 0.0 1.6 0.41 0.46 0.46 78 1013.5
20260507140914 16 49 0.0 3.2 0.41 0.46 0.46 83 1013.9
20260507140413 15 68 0.0 3.2 0.41 0.46 0.46 85 1014.2
20260507135914 15 243 1.6 3.2 0.41 0.46 0.46 88 1014.2
20260507135414 15 135 0.0 3.2 0.38 0.43 0.43 83 1014.6
20260507134915 15 227 1.6 3.2 0.08 0.13 0.13 84 1014.3
20260507134414 16 213 0.0 3.2 0.05 0.10 0.10 82 1014.4
20260507133915 16 80 1.6 4.8 0.03 0.08 0.08 80 1014.2
20260507133414 16 191 1.6 4.8 0.00 0.05 0.05 79 1014.2
20260507132914 16 71 1.6 3.2 0.00 0.05 0.05 76 1014.2
20260507132413 16 50 0.0 8.0 0.00 0.05 0.05 77 1014.2
20260507131916 16 82 0.0 8.0 0.00 0.05 0.05 78 1013.9
20260507131414 16 85 1.6 8.0 0.00 0.05 0.05 76 1014.2
20260507130915 17 65 1.6 4.8 0.00 0.15 0.05 73 1013.9
20260507130413 18 66 1.6 8.0 0.00 0.20 0.05 69 1013.9
20260507125915 18 75 1.6 8.0 0.00 0.28 0.05 67 1013.7
20260507125414 18 250 0.0 3.2 0.00 0.33 0.05 67 1013.5
20260507124914 18 257 0.0 3.2 0.00 0.36 0.05 65 1013.5
20260507124414 18 62 0.0 3.2 0.00 0.38 0.05 61 1013.6
20260507123413 18 169 1.6 16.1 0.03 0.53 0.05 63 1013.9
20260507122914 17 80 3.2 16.1 0.03 0.61 0.05 65 1013.9
20260507122413 17 62 3.2 16.1 0.03 0.71 0.05 66 1013.9
20260507121914 17 111 1.6 12.9 0.03 0.76 0.05 67 1013.7
20260507121416 18 91 3.2 12.9 0.03 0.79 0.05 67 1013.9
20260507120913 18 81 3.2 12.9 0.03 0.81 0.05 62 1013.9
20260507120413 18 250 1.6 11.3 0.03 0.86 0.05 69 1013.9
20260507115914 18 251 1.6 14.5 0.03 1.12 0.05 70 1013.9
20260507115413 18 199 4.8 14.5 0.03 1.40 0.05 67 1013.9
20260507114914 18 251 1.6 11.3 0.03 1.57 0.05 73 1013.5
20260507114414 18 255 3.2 12.9 0.03 1.57 0.05 66 1013.5
20260507113914 18 250 3.2 14.5 0.03 1.57 0.05 67 1013.5
20260507113414 19 235 4.8 14.5 0.00 1.55 0.03 61 1013.5
20260507112915 20 238 8.0 14.5 0.00 1.55 0.03 58 1013.5
20260507112414 20 269 6.4 16.1 0.00 1.55 0.03 53 1013.5
20260507111413 21 247 4.8 16.1 0.00 1.55 0.03 51 1013.5
20260507110413 21 255 3.2 14.5 0.00 1.55 0.03 50 1013.2
20260507105915 21 223 4.8 14.5 0.00 1.55 0.03 50 1013.4
20260507104414 20 220 4.8 16.1 0.00 1.55 0.03 53 1013.2
20260507103914 21 237 4.8 16.1 0.00 1.55 0.03 52 1013.5
20260507101914 19 244 6.4 16.1 0.00 1.55 0.03 58 1013.5
20260507101413 20 241 4.8 14.5 0.00 1.55 0.03 55 1013.5
20260507100914 20 257 6.4 14.5 0.00 1.57 0.03 52 1013.5
20260507100413 20 266 9.7 14.5 0.00 1.57 0.03 55 1013.5
20260507095914 20 234 3.2 11.3 0.00 1.57 0.03 58 1013.6
20260507094413 20 239 3.2 11.3 0.00 1.57 0.03 58 1013.5
20260507093413 18 225 1.6 11.3 0.00 1.57 0.03 62 1013.6
20260507092913 18 265 1.6 4.8 0.00 1.57 0.03 61 1013.9
20260507092413 18 240 3.2 4.8 0.00 1.57 0.03 60 1013.9
20260507091913 18 61 1.6 4.8 0.00 1.57 0.03 62 1013.9
20260507091414 18 82 1.6 4.8 0.00 1.57 0.03 61 1014.1
20260507090914 18 253 3.2 4.8 0.00 1.57 0.03 62 1014.0
20260507090413 18 12 0.0 3.2 0.00 1.60 0.03 62 1014.0
20260507085915 18 86 0.0 3.2 0.00 1.68 0.03 62 1014.1
20260507085414 18 108 1.6 3.2 0.00 1.70 0.03 63 1014.1
20260507084915 17 322 0.0 3.2 0.00 1.70 0.03 63 1014.2
20260507084414 17 56 0.0 3.2 0.00 1.70 0.03 65 1013.9
20260507083914 17 51 1.6 3.2 0.00 1.70 0.03 66 1013.9
20260507083414 17 114 0.0 3.2 0.00 1.70 0.03 66 1014.2
20260507082913 17 77 1.6 3.2 0.00 1.70 0.03 68 1014.2
20260507081913 16 67 1.6 3.2 0.00 1.70 0.03 69 1014.2
20260507080915 16 75 1.6 4.8 0.00 1.70 0.03 72 1014.2
20260507080414 16 71 1.6 4.8 0.00 1.70 0.03 72 1014.3
20260507075913 16 33 1.6 4.8 0.00 1.70 0.03 72 1014.2
20260507075415 16 61 1.6 4.8 0.00 1.70 0.03 72 1014.2
20260507074914 16 53 0.0 3.2 0.00 1.70 0.03 74 1014.4
20260507074413 16 349 0.0 3.2 0.00 1.70 0.03 75 1014.6
20260507073916 15 45 0.0 3.2 0.00 1.70 0.03 76 1014.6
20260507073414 15 46 1.6 3.2 0.00 1.70 0.03 76 1014.6
20260507072914 15 45 0.0 4.8 0.00 1.70 0.03 78 1014.6
20260507072414 15 26 1.6 4.8 0.00 1.70 0.03 78 1014.6
20260507071414 15 48 1.6 4.8 0.00 1.70 0.03 79 1014.4
20260507070914 15 53 1.6 4.8 0.00 1.70 0.03 79 1014.6
20260507070415 14 40 0.0 4.8 0.00 1.70 0.03 79 1014.3
20260507065914 14 70 1.6 4.8 0.00 1.70 0.03 80 1014.5
20260507064913 14 52 1.6 4.8 0.00 1.70 0.03 82 1014.6
20260507064414 13 34 0.0 3.2 0.00 1.73 0.03 82 1014.6
20260507063914 13 33 0.0 1.6 0.00 1.73 0.03 84 1014.2
20260507063414 13 82 0.0 3.2 0.00 1.73 0.03 83 1014.2
20260507062916 13 252 0.0 3.2 0.00 1.75 0.03 82 1014.4
20260507062414 13 65 0.0 3.2 0.00 1.75 0.03 84 1014.2
20260507061413 12 44 0.0 1.6 0.00 1.80 0.03 86 1014.6
20260507060915 12 257 0.0 1.6 0.00 1.83 0.03 86 1014.5
20260507060413 12 4 0.0 4.8 0.00 1.85 0.03 86 1014.3
20260507055913 12 65 0.0 4.8 0.00 1.91 0.03 87 1014.2
20260507055414 12 60 1.6 4.8 0.00 1.96 0.03 87 1014.2
20260507054913 12 136 1.6 3.2 0.00 2.01 0.03 87 1014.5
20260507054413 12 45 0.0 1.6 0.00 2.03 0.03 88 1014.2
20260507053914 12 45 0.0 1.6 0.00 2.06 0.03 90 1014.2
20260507053414 12 254 0.0 1.6 0.00 2.06 0.03 89 1014.5
20260507052914 12 50 0.0 1.6 0.00 2.08 0.03 90 1014.2
20260507051914 12 74 0.0 3.2 0.00 2.11 0.03 91 1014.4
20260507051414 11 69 0.0 3.2 0.00 2.11 0.03 92 1014.2
20260507050913 11 53 1.6 3.2 0.00 2.11 0.03 93 1014.2
20260507050414 11 34 0.0 1.6 0.00 2.11 0.03 94 1014.5
20260507045914 11 72 0.0 1.6 0.00 2.11 0.03 95 1014.2
20260507045413 11 62 0.0 0.0 0.00 2.11 0.03 95 1014.2
20260507044414 11 49 0.0 1.6 0.00 2.11 0.03 95 1014.2
20260507043916 11 48 0.0 1.6 0.00 2.11 0.03 95 1014.2
20260507042913 11 218 0.0 1.6 0.00 2.11 0.03 95 1013.9
20260507042416 11 160 0.0 1.6 0.00 2.11 0.03 96 1013.9
20260507041414 11 165 0.0 1.6 0.00 2.11 0.03 96 1013.9
20260507040914 11 145 0.0 1.6 0.00 2.11 0.03 95 1013.9
20260507040414 11 174 0.0 1.6 0.00 2.11 0.03 95 1013.9
20260507035914 11 248 0.0 1.6 0.00 2.11 0.03 95 1013.9
20260507034414 11 218 0.0 0.0 0.00 2.11 0.03 95 1013.8
20260507033917 11 194 0.0 0.0 0.00 2.11 0.03 95 1013.9
20260507033416 11 135 0.0 0.0 0.00 2.11 0.03 95 1013.7
20260507032914 11 198 0.0 1.6 0.00 2.11 0.03 95 1013.5
20260507032414 11 174 0.0 1.6 0.00 2.11 0.03 95 1013.5
20260507031914 11 76 0.0 1.6 0.00 2.11 0.03 95 1013.5
20260507031414 11 73 0.0 1.6 0.00 2.11 0.03 95 1013.5
20260507030914 11 73 0.0 1.6 0.00 2.11 0.03 95 1013.5
20260507030414 11 72 0.0 1.6 0.00 2.11 0.03 95 1013.5
20260507025914 11 73 1.6 1.6 0.00 2.11 0.03 95 1013.5
20260507025416 11 250 0.0 1.6 0.00 2.11 0.03 95 1013.7
20260507024914 11 245 0.0 1.6 0.00 2.11 0.03 95 1013.9
20260507024414 11 239 0.0 1.6 0.00 2.11 0.03 95 1013.6
20260507023914 11 201 0.0 1.6 0.00 2.11 0.03 95 1013.5
20260507023415 11 87 0.0 1.6 0.00 2.11 0.03 95 1013.5
20260507022915 11 175 0.0 1.6 0.00 2.11 0.03 95 1013.5
20260507022413 11 89 0.0 1.6 0.00 2.11 0.03 95 1013.6
20260507021914 11 106 0.0 1.6 0.00 2.11 0.03 95 1013.5
20260507020414 11 188 0.0 1.6 0.00 2.11 0.03 95 1013.5
20260507015914 11 81 0.0 1.6 0.00 2.11 0.03 95 1013.5
20260507015414 11 252 0.0 1.6 0.00 2.11 0.03 95 1013.5
20260507014414 11 191 0.0 1.6 0.00 2.11 0.03 96 1013.3
20260507013914 11 189 0.0 1.6 0.00 2.11 0.03 96 1013.4
20260507013413 11 68 0.0 1.6 0.00 2.11 0.03 96 1013.5
20260507012913 11 71 0.0 3.2 0.00 2.11 0.03 96 1013.5
20260507012415 11 86 0.0 3.2 0.00 2.11 0.03 95 1013.2
20260507011914 11 243 0.0 3.2 0.00 2.11 0.03 96 1013.2
20260507011414 11 216 0.0 3.2 0.00 2.11 0.03 95 1013.2
20260507010414 11 250 1.6 3.2 0.00 2.11 0.03 95 1013.5
20260507004914 11 170 0.0 0.0 0.00 2.11 0.03 95 1013.5
20260507004414 12 102 0.0 0.0 0.00 2.11 0.03 95 1013.5
20260507003914 12 105 0.0 1.6 0.00 2.11 0.03 94 1013.5
20260507003414 12 105 0.0 1.6 0.00 2.11 0.03 94 1013.2
20260507002913 12 108 0.0 1.6 0.00 2.11 0.03 94 1013.5
20260507002414 12 184 0.0 0.0 0.00 2.11 0.03 94 1013.2
20260507001914 12 162 0.0 0.0 0.00 2.11 0.03 94 1013.3
20260507001414 12 79 0.0 1.6 0.03 2.11 0.03 94 1013.2
20260507000915 12 78 0.0 1.6 0.03 2.11 0.03 94 1013.2
20260506235915 13 69 0.0 1.6 0.03 2.11 0.03 94 1013.2
20260506235414 12 264 0.0 0.0 0.03 2.11 0.03 93 1013.2
20260506234914 13 60 0.0 0.0 0.03 2.11 0.03 94 1013.2
20260506234414 12 111 0.0 1.6 0.03 2.11 0.03 93 1013.0
20260506233914 12 141 0.0 1.6 0.03 2.11 0.03 93 1013.1
20260506233413 12 178 0.0 1.6 0.03 2.11 0.03 93 1013.2
20260506232415 12 137 0.0 1.6 0.03 2.11 0.03 93 1013.2
20260506231915 13 94 0.0 1.6 0.03 2.11 0.03 93 1013.2
20260506231414 13 97 0.0 1.6 0.00 2.08 0.00 93 1012.9
20260506230914 12 213 0.0 1.6 0.00 2.08 0.00 93 1013.1
20260506225914 13 276 0.0 1.6 0.00 2.08 0.00 93 1013.1
20260506225415 13 254 0.0 3.2 0.00 2.08 0.00 93 1013.0
20260506224916 13 72 0.0 3.2 0.00 2.08 0.00 92 1013.2
20260506224414 13 84 0.0 3.2 0.00 2.08 0.00 92 1013.1
20260506223914 13 69 1.6 3.2 0.00 2.08 0.00 93 1013.2
20260506223414 13 70 1.6 1.6 0.00 2.08 0.00 93 1013.2
20260506222914 13 50 0.0 3.2 0.00 2.08 0.00 93 1012.9
20260506222414 13 227 0.0 3.2 0.00 2.08 0.00 93 1013.1
20260506221914 13 239 1.6 3.2 0.00 2.08 0.00 93 1012.9
20260506221414 13 200 0.0 4.8 0.00 2.08 0.00 93 1012.9
20260506220415 13 63 0.0 4.8 0.00 2.08 0.00 93 1012.9
20260506215916 13 168 0.0 1.6 0.00 2.08 2.08 93 1012.9
20260506215414 13 216 0.0 1.6 0.00 2.08 2.08 93 1012.9
20260506214915 13 78 0.0 1.6 0.00 2.08 2.08 93 1012.9
20260506213914 13 63 0.0 1.6 0.00 2.08 2.08 92 1012.9
20260506213414 13 207 0.0 1.6 0.00 2.08 2.08 91 1012.9
20260506212914 13 249 0.0 3.2 0.00 2.08 2.08 91 1012.9
20260506212414 13 248 1.6 3.2 0.00 2.08 2.08 93 1012.9
20260506211913 13 203 0.0 3.2 0.00 2.08 2.08 94 1012.9
20260506211413 13 159 1.6 3.2 0.00 2.08 2.08 95 1012.5
20260506210414 13 245 0.0 1.6 0.00 2.08 2.08 95 1012.6
20260506203414 13 162 0.0 1.6 0.00 2.08 2.08 94 1012.5
20260506202914 13 209 0.0 1.6 0.00 2.08 2.08 94 1012.5
20260506202414 13 101 0.0 1.6 0.00 2.08 2.08 94 1012.5
20260506201915 13 218 0.0 1.6 0.00 2.08 2.08 95 1012.2
20260506201413 13 82 0.0 1.6 0.00 2.08 2.08 95 1012.2
20260506200915 13 64 1.6 1.6 0.00 2.08 2.08 95 1012.2
20260506200414 13 245 0.0 1.6 0.00 2.08 2.08 94 1011.9
20260506195914 13 124 0.0 1.6 0.00 2.08 2.08 94 1011.9
20260506195414 13 84 0.0 1.6 0.00 2.08 2.08 94 1011.9
20260506193914 13 206 0.0 1.6 0.00 2.08 2.08 93 1011.5
20260506193414 14 207 0.0 1.6 0.00 2.08 2.08 93 1011.5
20260506192414 14 103 0.0 3.2 0.00 2.08 2.08 94 1011.5
20260506191915 14 71 1.6 3.2 0.00 2.08 2.08 93 1011.4
20260506190913 14 237 1.6 1.6 0.00 2.08 2.08 93 1011.2
20260506190414 14 174 0.0 1.6 0.00 2.08 2.08 92 1010.8
20260506185914 14 152 0.0 1.6 0.00 2.08 2.08 92 1011.2
20260506185414 14 166 0.0 1.6 0.00 2.08 2.08 92 1010.8
20260506184915 14 133 0.0 1.6 0.00 2.08 2.08 92 1011.0
20260506184414 15 119 0.0 0.0 0.00 2.08 2.08 91 1011.2
20260506183914 15 186 0.0 4.8 0.00 2.08 2.08 90 1010.9
20260506183414 15 135 0.0 4.8 0.00 2.08 2.08 89 1010.5
20260506182415 14 150 0.0 1.6 0.00 2.08 2.08 92 1010.5
20260506181914 15 117 0.0 1.6 0.00 2.08 2.08 92 1010.6
20260506180916 14 73 0.0 3.2 0.00 2.08 2.08 91 1010.5
20260506180415 14 108 0.0 1.6 0.00 2.08 2.08 93 1010.5
20260506175914 15 166 0.0 1.6 0.00 2.08 2.08 93 1010.5
20260506175414 15 167 0.0 0.0 0.00 2.08 2.08 93 1010.2
20260506174414 15 169 0.0 1.6 0.00 2.08 2.08 92 1010.2
20260506173914 15 155 0.0 1.6 0.00 2.08 2.08 92 1009.8
20260506172914 15 155 0.0 3.2 0.00 2.08 2.08 93 1009.8
20260506172414 15 166 0.0 3.2 0.00 2.08 2.08 92 1009.8
20260506171914 15 220 1.6 3.2 0.00 2.08 2.08 93 1009.9
20260506171414 15 183 0.0 1.6 0.00 2.08 2.08 92 1009.8
20260506170415 15 149 0.0 1.6 0.00 2.08 2.08 92 1009.8
20260506165914 15 182 0.0 1.6 0.00 2.08 2.08 92 1009.8
20260506165414 15 152 0.0 1.6 0.00 2.08 2.08 92 1009.8
20260506164914 15 143 0.0 1.6 0.00 2.08 2.08 92 1009.8
20260506163915 15 136 0.0 1.6 0.00 2.08 2.08 91 1009.8
20260506163414 15 151 0.0 1.6 0.00 2.08 2.08 91 1009.6
20260506162914 15 196 0.0 1.6 0.00 2.08 2.08 91 1009.8
20260506162415 15 189 0.0 1.6 0.00 2.08 2.08 90 1009.8
20260506161914 15 160 0.0 1.6 0.00 2.08 2.08 90 1009.8
20260506161414 15 197 0.0 1.6 0.00 2.11 2.08 89 1009.8
20260506160415 15 186 0.0 1.6 0.00 2.11 2.08 89 1009.8
20260506155915 16 177 0.0 1.6 0.00 2.13 2.08 88 1009.8
20260506155414 16 201 0.0 1.6 0.00 2.13 2.08 88 1009.8
20260506154914 16 67 1.6 3.2 0.00 2.13 2.08 88 1009.8
20260506153916 16 165 0.0 1.6 0.00 2.16 2.08 85 1009.8
20260506152916 16 173 0.0 3.2 0.00 2.16 2.08 85 1009.8
20260506152415 16 73 1.6 1.6 0.00 2.16 2.08 86 1009.8
20260506151914 16 140 0.0 3.2 0.00 2.16 2.08 84 1010.2
20260506151415 16 71 0.0 3.2 0.00 2.16 2.08 81 1010.2
20260506150916 16 74 0.0 1.6 0.00 2.16 2.08 83 1010.2
20260506150414 16 254 0.0 3.2 0.00 2.16 2.08 80 1010.3
20260506145914 16 203 0.0 3.2 0.00 2.16 2.08 81 1010.4
20260506145414 16 259 0.0 1.6 0.00 2.16 2.08 82 1010.2
20260506144914 16 33 0.0 1.6 0.00 2.16 2.08 82 1010.3
20260506144414 16 35 0.0 1.6 0.00 2.16 2.08 82 1010.2
20260506143414 16 64 0.0 1.6 0.00 2.16 2.08 84 1010.5
20260506142914 15 170 0.0 3.2 0.00 2.16 2.08 84 1010.5
20260506142415 15 34 0.0 3.2 0.00 2.16 2.08 84 1010.8